Location: Unspecified
(0.0000°N, 0.0000°E)
Time: 18:00:57
(UTC+00:00)

Vanguard 2 Rocket - Pass Details

Date: 24 January 2020
Orbit: 554 x 3327 km, 32.9° (Epoch: 20 February)

Event Time Altitude Azimuth Distance (km) Brightness Sun altitude
Rises 22:30:35 0° 220° (SW) 5,507 11.4 -58.6°
Reaches altitude 10° 22:35:55 10° 206° (SSW) 3,930 10.4 -59.6°
Enters shadow 22:37:31 13° 200° (SSW) 3,482 10.1 -59.9°
Maximum altitude 22:42:46 22° 161° (SSE) 2,384 - -60.9°
Drops below altitude 10° 22:47:32 10° 111° (ESE) 2,613 - -61.8°
Sets 22:50:12 0° 94° (E) 3,273 - -62.2°
